Location: Bidart
(43.4376°N, 1.5913°W)
Time: 04:59:14
(UTC+00:00)

USA 229 DEB - Pass Details

Date: 22 April 2026
Orbit: 844 x 1364 km, 63.4° (Epoch: 10 January)

Event Time Altitude Azimuth Distance (km) Brightness Sun altitude
Rises 23:54:05 0° 324° (NW) 3,982 7.4 -34.4°
Reaches altitude 10° 23:56:42 10° 327° (NNW) 3,090 6.7 -34.4°
Maximum altitude 00:04:13 67° 50° (NE) 1,366 4.2 -34.4°
Enters shadow 00:04:54 64° 78° (ENE) 1,399 4.2 -34.4°
